Погода в Култуке

Россия / Иркутская область     51°43′31″N   103°42′33″E
темп.,
°C
ветер,
м/с
пор.,
м/с
влажн.,
%
обл.,
%
осадки,
мм/ч
давл.,
гПа
погр.,
м
28 июля, ср
ср2823:00+12сз12873 0.0 100410
02:00+11зсз019126 0.1 100511
05:00+12зсз018977 0.0 100412
08:00+13вюв118781 0.1 100583
11:00+17вюв227128 0.0 1004386
14:00+18вюв236529 0.1 1003433
17:00+17вюв246842 0.1 1002294
20:00+14ссв018491 0.1 100220
29 июля, чт
чт2923:00+12зсз018673 0.0 100311
02:00+12в118896 0.0 100212
05:00+12зсз119199 0.1 100214
08:00+14сз1290100 0.3 1003134
11:00+13с2397100 2.3 1005214
14:00+12зсз3695100 7.3 1006375
17:00+12з2596100 7.8 1008307
20:00+12зсз1395100 11.2 1010199
30 июля, пт
пт3023:00+11з1296100 2.8 101168
02:00+11зсз2295100 3.5 101170
05:00+11зюз1294100 0.7 101138
08:00+11зюз129099 0.8 101236
11:00+13в018293 0.0 1012208
14:00+14в327493 0.0 1011438
17:00+11всв128686 0.0 1012175
20:00+11ююв01875 0.0 101226
31 июля, сб
сб3123:00+10з228869 0.0 101313
02:00+10з228460 0.0 101320
05:00+9з22858 0.0 101421
08:00+14зсз1273100 0.0 1014136
11:00+18всв116090 0.0 1014674
14:00+18юв226231 0.0 1013797
17:00+17юв2367100 0.0 1013270
20:00+16ю1178100 0.0 101211
1 августа, вс
вс123:00+14з1181100 0.0 101312
02:00+13зюз2285100 0.0 101215
05:00+12ююз019034 0.0 101112
08:00+14в1281100 0.0 1010135
11:00+14в2480100 0.0 1009273
14:00+13вюв1388100 0.0 1008134
17:00+13св1194100 0.2 100746
20:00+13всв1195100 0.3 100617